CW4588 Weather Reports


Display with metric or nautical units.
time (UTC)temp
F
wind
direction
speed
MPH
gust
MPH
rain 1hr
in
rain 24hr
in
rain mn
in
humidity
%
barometer
mb
20260507082024 51 207 3.0 0.0 0.00 0.00 0.00 27 1011.8
20260507081604 51 166 3.0 0.0 0.00 0.00 0.00 27 1011.8
20260507081032 51 166 3.0 0.0 0.00 0.00 0.00 27 1011.7
20260507080520 51 130 4.0 0.0 0.00 0.00 0.00 26 1011.7
20260507080029 51 52 4.0 0.0 0.00 0.00 0.00 24 1011.7
20260507075542 51 179 3.0 0.0 0.00 0.00 0.00 28 1011.7
20260507075047 50 110 3.0 0.0 0.00 0.00 0.00 28 1011.7
20260507074533 49 163 3.0 0.0 0.00 0.00 0.00 29 1011.7
20260507074030 49 138 3.0 0.0 0.00 0.00 0.00 29 1011.7
20260507073538 48 139 4.0 0.0 0.00 0.00 0.00 33 1011.7
20260507073022 48 138 4.0 0.0 0.00 0.00 0.00 30 1011.8
20260507072540 48 94 3.0 0.0 0.00 0.00 0.00 31 1011.8
20260507072027 47 178 4.0 0.0 0.00 0.00 0.00 35 1011.8
20260507071536 47 128 4.0 0.0 0.00 0.00 0.00 32 1011.8
20260507071025 47 103 3.0 0.0 0.00 0.00 0.00 33 1011.9
20260507070542 47 130 3.0 0.0 0.00 0.00 0.00 34 1011.9
20260507070030 47 138 3.0 0.0 0.00 0.00 0.00 35 1011.9
20260507065538 47 138 4.0 0.0 0.00 0.00 0.00 33 1011.9
20260507065100 48 141 4.0 0.0 0.00 0.00 0.00 35 1011.9
20260507064524 48 128 3.0 0.0 0.00 0.00 0.00 32 1011.9
20260507064104 49 134 2.0 0.0 0.00 0.00 0.00 35 1011.9
20260507063528 48 132 2.0 0.0 0.00 0.00 0.00 37 1011.9
20260507063037 48 122 2.0 0.0 0.00 0.00 0.00 39 1011.9
20260507062520 48 148 2.0 0.0 0.00 0.00 0.00 39 1011.8
20260507062036 47 148 1.0 0.0 0.00 0.00 0.00 42 1011.8
20260507061541 47 148 2.0 0.0 0.00 0.00 0.00 41 1011.6
20260507061027 46 148 2.0 0.0 0.00 0.00 0.00 40 1011.6
20260507060545 46 148 1.0 0.0 0.00 0.00 0.00 44 1011.6
20260507060025 45 148 2.0 0.0 0.00 0.00 0.00 46 1011.6
20260507055530 45 148 2.0 0.0 0.00 0.00 0.00 41 1011.6
20260507055048 45 149 2.0 0.0 0.00 0.00 0.00 43 1011.6
20260507054601 45 149 2.0 0.0 0.00 0.00 0.00 44 1011.6
20260507054059 45 149 3.0 0.0 0.00 0.00 0.00 43 1011.7
20260507053523 45 149 2.0 0.0 0.00 0.00 0.00 45 1011.7
20260507053026 44 138 2.0 0.0 0.00 0.00 0.00 45 1011.5
20260507052540 43 138 2.0 0.0 0.00 0.00 0.00 48 1011.5
20260507052027 43 138 2.0 0.0 0.00 0.00 0.00 49 1011.5
20260507051534 43 138 2.0 0.0 0.00 0.00 0.00 50 1011.5
20260507051050 43 138 3.0 0.0 0.00 0.00 0.00 50 1011.5
20260507050520 42 138 3.0 0.0 0.00 0.00 0.00 51 1011.5
20260507050055 42 134 2.0 0.0 0.00 0.00 0.00 53 1011.5
20260507045520 41 132 2.0 0.0 0.00 0.00 0.00 53 1011.6
20260507045029 40 135 2.0 0.0 0.00 0.00 0.00 59 1011.6
20260507044548 40 134 2.0 0.0 0.00 0.00 0.00 58 1011.6
20260507044032 39 138 2.0 0.0 0.00 0.00 0.00 62 1011.6
20260507043538 38 138 2.0 0.0 0.00 0.00 0.00 60 1011.6
20260507043039 37 144 2.0 0.0 0.00 0.00 0.00 61 1011.6
20260507042523 36 149 2.0 0.0 0.00 0.00 0.00 64 1011.5
20260507042032 36 186 1.0 0.0 0.00 0.00 0.00 66 1011.5
20260507041530 35 187 1.0 0.0 0.00 0.00 0.00 67 1011.5
20260507041037 34 187 2.0 0.0 0.00 0.00 0.00 69 1011.5
20260507040521 34 187 2.0 0.0 0.00 0.00 0.00 70 1011.5
20260507040036 33 187 2.0 0.0 0.00 0.00 0.00 72 1011.5
20260507035540 32 194 2.0 0.0 0.00 0.00 0.00 75 1011.6
20260507035028 31 194 2.0 0.0 0.00 0.00 0.00 77 1011.6
20260507034547 31 194 2.0 0.0 0.00 0.00 0.00 80 1011.6
20260507034034 30 194 2.0 0.0 0.00 0.00 0.00 83 1011.7
20260507033519 28 199 1.0 0.0 0.00 0.00 0.00 87 1011.7
20260507033028 27 199 1.0 0.0 0.00 0.00 0.00 88 1011.8
20260507032535 26 199 0.0 0.0 0.00 0.00 0.00 88 1011.8
20260507032022 26 199 0.0 0.0 0.00 0.00 0.00 87 1011.8
20260507031540 26 199 0.0 0.0 0.00 0.00 0.00 87 1011.8
20260507031025 26 199 0.0 0.0 0.00 0.00 0.00 87 1011.6
20260507030528 26 199 0.0 0.0 0.00 0.00 0.00 87 1011.6
20260507030030 25 199 0.0 0.0 0.00 0.00 0.00 87 1011.6
20260507025522 25 199 0.0 0.0 0.00 0.00 0.00 87 1011.6
20260507025026 25 199 0.0 0.0 0.00 0.00 0.00 87 1011.6
20260507024604 25 199 0.0 0.0 0.00 0.00 0.00 86 1011.6
20260507024030 25 199 0.0 0.0 0.00 0.00 0.00 86 1011.6
20260507023539 25 199 0.0 0.0 0.00 0.00 0.00 86 1011.6
20260507023059 25 199 0.0 0.0 0.00 0.00 0.00 86 1011.6
20260507022524 25 199 0.0 0.0 0.00 0.00 0.00 86 1011.5
20260507022044 25 199 0.0 0.0 0.00 0.00 0.00 86 1011.5
20260507021533 25 199 0.0 0.0 0.00 0.00 0.00 86 1011.5
20260507021021 25 199 0.0 0.0 0.00 0.00 0.00 86 1011.5
20260507020528 25 199 0.0 0.0 0.00 0.00 0.00 85 1011.5
20260507020042 25 199 0.0 0.0 0.00 0.00 0.00 85 1011.5
20260507015530 25 199 0.0 0.0 0.00 0.00 0.00 85 1011.4
20260507015059 26 199 0.0 0.0 0.00 0.00 0.00 85 1011.4
20260507014529 26 199 0.0 0.0 0.00 0.00 0.00 85 1011.4
20260507014024 26 199 0.0 0.0 0.00 0.00 0.00 84 1011.4
20260507013532 26 199 0.0 0.0 0.00 0.00 0.00 85 1011.4
20260507013039 26 199 0.0 0.0 0.00 0.00 0.00 84 1011.4
20260507012536 26 199 0.0 0.0 0.00 0.00 0.00 85 1011.4
20260507012043 27 199 0.0 0.0 0.00 0.00 0.00 85 1011.4
20260507011538 27 199 0.0 0.0 0.00 0.00 0.00 85 1011.4
20260507011026 27 199 0.0 0.0 0.00 0.00 0.00 85 1011.4
20260507010535 27 199 0.0 0.0 0.00 0.00 0.00 85 1011.4
20260507010026 27 199 0.0 0.0 0.00 0.00 0.00 84 1011.3
20260507005541 27 199 0.0 0.0 0.00 0.00 0.00 84 1011.3
20260507005028 27 199 0.0 0.0 0.00 0.00 0.00 84 1011.3
20260507004550 27 199 0.0 0.0 0.00 0.00 0.00 84 1011.3
20260507004038 27 199 0.0 0.0 0.00 0.00 0.00 84 1011.3
20260507003525 27 199 0.0 0.0 0.00 0.00 0.00 84 1011.3
20260507003029 27 199 0.0 0.0 0.00 0.00 0.00 84 1011.3
20260507002520 27 199 0.0 0.0 0.00 0.00 0.00 84 1011.3
20260507002058 27 199 0.0 0.0 0.00 0.00 0.00 83 1011.3
20260507001559 27 199 0.0 0.0 0.00 0.00 0.00 83 1011.3
20260507001025 27 199 0.0 0.0 0.00 0.00 0.00 83 1011.3
20260507000534 27 199 0.0 0.0 0.00 0.00 0.00 83 1011.3
20260507000040 27 199 0.0 0.0 0.00 0.00 0.00 82 1011.3
20260506235536 27 199 0.0 0.0 0.00 0.00 0.00 82 1011.3
20260506235023 28 199 0.0 0.0 0.00 0.00 0.00 81 1011.3
20260506234604 28 199 0.0 0.0 0.00 0.00 0.00 80 1011.3
20260506234035 28 199 0.0 0.0 0.00 0.00 0.00 80 1011.3
20260506233520 28 199 0.0 0.0 0.00 0.00 0.00 78 1011.3
20260506233048 28 199 0.0 0.0 0.00 0.00 0.00 78 1011.2
20260506232526 29 199 0.0 0.0 0.00 0.00 0.00 77 1011.2
20260506232033 29 199 0.0 0.0 0.00 0.00 0.00 78 1011.2
20260506231521 29 199 0.0 0.0 0.00 0.00 0.00 77 1011.1
20260506231036 29 199 0.0 0.0 0.00 0.00 0.00 77 1011.1
20260506230523 29 199 0.0 0.0 0.00 0.00 0.00 76 1011.1
20260506230028 30 199 0.0 0.0 0.00 0.00 0.00 76 1011.1
20260506225541 30 199 0.0 0.0 0.00 0.00 0.00 75 1011.1
20260506225047 30 199 0.0 0.0 0.00 0.00 0.00 74 1011.1
20260506224544 30 199 0.0 0.0 0.00 0.00 0.00 74 1011.1
20260506224031 31 199 0.0 0.0 0.00 0.00 0.00 73 1011.0
20260506223537 31 199 0.0 0.0 0.00 0.00 0.00 73 1011.0
20260506223056 31 199 0.0 0.0 0.00 0.00 0.00 72 1011.0
20260506222544 31 199 0.0 0.0 0.00 0.00 0.00 72 1010.8
20260506222037 32 199 0.0 0.0 0.00 0.00 0.00 72 1010.8
20260506221528 32 199 0.0 0.0 0.00 0.00 0.00 72 1010.8
20260506221035 32 199 0.0 0.0 0.00 0.00 0.00 72 1010.8
20260506220525 32 199 1.0 0.0 0.00 0.00 0.00 72 1010.8
20260506220044 32 199 1.0 0.0 0.00 0.00 0.00 72 1010.8
20260506215529 32 199 2.0 0.0 0.00 0.00 0.00 73 1010.6
20260506215049 32 199 2.0 0.0 0.00 0.00 0.00 73 1010.6
20260506214530 31 199 2.0 0.0 0.00 0.00 0.00 74 1010.5
20260506214022 31 199 2.0 0.0 0.00 0.00 0.00 75 1010.5
20260506213530 31 199 1.0 0.0 0.00 0.00 0.00 76 1010.5
20260506213042 31 199 0.0 0.0 0.00 0.00 0.00 76 1010.5
20260506212530 31 199 0.0 0.0 0.00 0.00 0.00 75 1010.3
20260506212047 31 199 0.0 0.0 0.00 0.00 0.00 75 1010.3
20260506211531 31 199 0.0 0.0 0.00 0.00 0.00 75 1010.3
20260506211023 31 199 0.0 0.0 0.00 0.00 0.00 75 1010.3
20260506210532 31 199 0.0 0.0 0.00 0.00 0.00 74 1010.3
20260506210030 31 199 0.0 0.0 0.00 0.00 0.00 74 1010.2
20260506205554 32 199 0.0 0.0 0.00 0.00 0.00 74 1010.2
20260506205022 32 199 0.0 0.0 0.00 0.00 0.00 73 1010.2
20260506204539 32 199 0.0 0.0 0.00 0.00 0.00 73 1010.2
20260506204024 32 199 0.0 0.0 0.00 0.00 0.00 72 1010.2
20260506203540 33 199 0.0 0.0 0.00 0.00 0.00 71 1010.2
20260506203027 33 199 0.0 0.0 0.00 0.00 0.00 71 1010.1
20260506202546 33 199 0.0 0.0 0.00 0.00 0.00 70 1010.1
20260506202036 34 199 0.0 0.0 0.00 0.00 0.00 70 1010.1
20260506201524 34 199 0.0 0.0 0.00 0.00 0.00 70 1010.0
20260506201038 34 199 0.0 0.0 0.00 0.00 0.00 68 1010.0
20260506200543 35 199 0.0 0.0 0.00 0.00 0.00 68 1010.0
20260506200046 35 199 0.0 0.0 0.00 0.00 0.00 67 1010.0
20260506195537 36 199 0.0 0.0 0.00 0.00 0.00 66 1009.8
20260506195027 36 199 0.0 0.0 0.00 0.00 0.00 66 1009.8
20260506194606 36 199 0.0 0.0 0.00 0.00 0.00 64 1009.8
20260506194033 37 199 0.0 0.0 0.00 0.00 0.00 64 1009.8
20260506193520 37 199 0.0 0.0 0.00 0.00 0.00 63 1009.8
20260506193036 37 199 0.0 0.0 0.00 0.00 0.00 62 1009.8
20260506192522 38 199 0.0 0.0 0.00 0.00 0.00 62 1009.8
20260506192041 38 199 0.0 0.0 0.00 0.00 0.00 61 1009.8
20260506191531 39 199 0.0 0.0 0.00 0.00 0.00 60 1009.7
20260506191020 39 199 0.0 0.0 0.00 0.00 0.00 60 1009.7
20260506190555 39 199 0.0 0.0 0.00 0.00 0.00 60 1009.7
20260506190026 40 199 0.0 0.0 0.00 0.00 0.00 59 1009.7
20260506185521 40 199 0.0 0.0 0.00 0.00 0.00 59 1009.7
20260506185028 40 199 1.0 0.0 0.00 0.00 0.00 59 1009.7
20260506184535 41 199 1.0 0.0 0.00 0.00 0.00 58 1009.7
20260506184032 41 199 1.0 0.0 0.00 0.00 0.00 58 1009.6
20260506183538 42 196 1.0 0.0 0.00 0.00 0.00 58 1009.6
20260506183049 42 194 1.0 0.0 0.00 0.00 0.00 57 1009.3
20260506182527 42 194 1.0 0.0 0.00 0.00 0.00 57 1009.3
20260506182034 43 194 1.0 0.0 0.00 0.00 0.00 55 1009.3
20260506181530 43 196 1.0 0.0 0.00 0.00 0.00 55 1009.2
20260506181039 43 196 1.0 0.0 0.00 0.00 0.00 55 1009.2
20260506180600 44 196 1.0 0.0 0.00 0.00 0.00 54 1009.2
20260506180024 44 194 1.0 0.0 0.00 0.00 0.00 54 1009.2
20260506175544 44 194 1.0 0.0 0.00 0.00 0.00 53 1009.2
20260506175032 44 190 1.0 0.0 0.00 0.00 0.00 53 1009.2
20260506174539 45 190 1.0 0.0 0.00 0.00 0.00 53 1009.2
20260506174028 45 262 2.0 0.0 0.00 0.00 0.00 52 1008.9
20260506173547 45 231 2.0 0.0 0.00 0.00 0.00 50 1008.9
20260506173056 46 227 2.0 0.0 0.00 0.00 0.00 51 1008.9
20260506172532 46 240 2.0 0.0 0.00 0.00 0.00 49 1008.7
20260506172020 46 197 1.0 0.0 0.00 0.00 0.00 49 1008.7
20260506171524 46 207 2.0 0.0 0.00 0.00 0.00 50 1008.6
20260506171029 47 285 2.0 0.0 0.00 0.00 0.00 48 1008.6
20260506170520 47 235 1.0 0.0 0.00 0.00 0.00 48 1008.6
20260506170038 47 194 1.0 0.0 0.00 0.00 0.00 48 1008.6
20260506165523 47 183 1.0 0.0 0.00 0.00 0.00 46 1008.7
20260506165051 48 183 1.0 0.0 0.00 0.00 0.00 47 1008.7
20260506164529 48 227 1.0 0.0 0.00 0.00 0.00 46 1008.5
20260506164017 48 227 2.0 0.0 0.00 0.00 0.00 46 1008.5
20260506163601 49 179 2.0 0.0 0.00 0.00 0.00 45 1008.5
20260506163030 49 228 3.0 0.0 0.00 0.00 0.00 44 1008.4
20260506162521 49 170 3.0 0.0 0.00 0.00 0.00 44 1008.4
20260506162042 49 272 3.0 0.0 0.00 0.00 0.00 43 1008.4
20260506161530 49 248 1.0 0.0 0.00 0.00 0.00 46 1008.4
20260506161040 49 203 1.0 0.0 0.00 0.00 0.00 45 1008.4
20260506160559 49 230 1.0 0.0 0.00 0.00 0.00 45 1008.4
20260506160028 49 230 1.0 0.0 0.00 0.00 0.00 45 1008.3
20260506155544 50 268 2.0 0.0 0.00 0.00 0.00 44 1008.3
20260506155030 50 190 2.0 0.0 0.00 0.00 0.00 44 1008.3
20260506154536 50 202 2.0 0.0 0.00 0.00 0.00 45 1008.3
20260506154024 49 223 2.0 0.0 0.00 0.00 0.00 47 1008.3
20260506153524 49 295 3.0 0.0 0.00 0.00 0.00 46 1008.3
20260506153039 48 214 4.0 0.0 0.00 0.00 0.00 47 1008.3
20260506152543 48 199 3.0 0.0 0.00 0.00 0.00 47 1008.2
20260506152036 48 227 3.0 0.0 0.00 0.00 0.00 49 1008.2
20260506151520 48 183 1.0 0.0 0.00 0.00 0.00 48 1008.3
20260506151058 48 190 2.0 0.0 0.00 0.00 0.00 49 1008.3
20260506150525 48 189 4.0 0.0 0.00 0.00 0.00 47 1008.3
20260506145529 48 176 2.0 0.0 0.00 0.00 0.00 49 1008.2
20260506145032 47 166 2.0 0.0 0.00 0.00 0.00 49 1008.2
20260506144531 47 242 1.0 0.0 0.00 0.00 0.00 49 1008.2
20260506144021 47 292 2.0 0.0 0.00 0.00 0.00 50 1008.2
20260506143530 47 214 4.0 0.0 0.00 0.00 0.00 50 1008.2
20260506143048 47 275 5.0 0.0 0.00 0.00 0.00 47 1008.2
20260506142534 48 196 4.0 0.0 0.00 0.00 0.00 49 1008.2
20260506142036 48 233 3.0 0.0 0.00 0.00 0.00 46 1008.2
20260506141524 48 211 3.0 0.0 0.00 0.00 0.00 47 1008.2
20260506141028 48 231 3.0 0.0 0.00 0.00 0.00 46 1008.2
20260506140528 48 248 3.0 0.0 0.00 0.00 0.00 47 1008.2
20260506140035 48 168 3.0 0.0 0.00 0.00 0.00 49 1008.2
20260506135521 48 186 2.0 0.0 0.00 0.00 0.00 50 1008.2
20260506135041 48 209 2.0 0.0 0.00 0.00 0.00 48 1008.2
20260506134552 48 209 3.0 0.0 0.00 0.00 0.00 50 1008.2
20260506134027 47 218 3.0 0.0 0.00 0.00 0.00 48 1008.2
20260506133526 47 245 4.0 0.0 0.00 0.00 0.00 49 1008.2
20260506133027 47 214 5.0 0.0 0.00 0.00 0.00 49 1008.1
20260506132534 47 220 5.0 0.0 0.00 0.00 0.00 49 1008.1
20260506132045 47 244 5.0 0.0 0.00 0.00 0.00 49 1008.1
20260506131602 47 275 5.0 0.0 0.00 0.00 0.00 48 1008.1
20260506131029 47 240 5.0 0.0 0.00 0.00 0.00 48 1008.0
20260506130539 47 183 5.0 0.0 0.00 0.00 0.00 50 1008.0
20260506130023 48 224 5.0 0.0 0.00 0.00 0.00 51 1007.8
20260506125533 48 217 4.0 0.0 0.00 0.00 0.00 51 1007.8
20260506125021 48 206 4.0 0.0 0.00 0.00 0.00 50 1007.8
20260506124540 48 289 4.0 0.0 0.00 0.00 0.00 48 1007.9
20260506124026 48 281 4.0 0.0 0.00 0.00 0.00 50 1007.8
20260506123535 47 248 5.0 0.0 0.00 0.00 0.00 49 1007.8
20260506123025 47 211 5.0 0.0 0.00 0.00 0.00 49 1007.8
20260506122540 47 211 4.0 0.0 0.00 0.00 0.00 50 1007.8
20260506122032 48 233 4.0 0.0 0.00 0.00 0.00 51 1007.8
20260506121521 48 214 4.0 0.0 0.00 0.00 0.00 47 1007.6
20260506121032 48 194 5.0 0.0 0.00 0.00 0.00 48 1007.6
20260506120551 49 218 5.0 0.0 0.00 0.00 0.00 48 1007.6
20260506120037 49 245 4.0 0.0 0.00 0.00 0.00 46 1007.6
20260506115523 49 235 4.0 0.0 0.00 0.00 0.00 46 1007.4
20260506115038 50 255 4.0 0.0 0.00 0.00 0.00 44 1007.4
20260506114525 51 200 5.0 0.0 0.00 0.00 0.00 43 1007.3
20260506114104 51 224 4.0 0.0 0.00 0.00 0.00 40 1007.3
20260506113531 52 172 6.0 0.0 0.00 0.00 0.00 41 1007.3
20260506113035 52 240 6.0 0.0 0.00 0.00 0.00 38 1007.3
20260506112552 52 209 5.0 0.0 0.00 0.00 0.00 38 1007.1
20260506112034 52 207 6.0 0.0 0.00 0.00 0.00 40 1007.1
20260506111540 52 194 7.0 0.0 0.00 0.00 0.00 36 1007.1
20260506111028 52 187 7.0 0.0 0.00 0.00 0.00 39 1007.0
20260506110546 52 163 7.0 0.0 0.00 0.00 0.00 34 1007.0
20260506110029 52 196 7.0 0.0 0.00 0.00 0.00 38 1006.8
20260506105520 53 218 5.0 0.0 0.00 0.00 0.00 38 1006.8
20260506105057 53 183 5.0 0.0 0.00 0.00 0.00 44 1006.8
20260506104551 53 187 4.0 0.0 0.00 0.00 0.00 38 1006.6
20260506104035 53 255 5.0 0.0 0.00 0.00 0.00 39 1006.6
20260506103522 52 175 5.0 0.0 0.00 0.00 0.00 40 1006.6
20260506103023 52 185 4.0 0.0 0.00 0.00 0.00 41 1006.6
20260506102538 52 211 5.0 0.0 0.00 0.00 0.00 42 1006.6
20260506102025 51 241 5.0 0.0 0.00 0.00 0.00 39 1006.6
20260506101535 52 203 5.0 0.0 0.00 0.00 0.00 37 1006.6
20260506101052 52 238 6.0 0.0 0.00 0.00 0.00 43 1006.5
20260506100517 51 224 6.0 0.0 0.00 0.00 0.00 42 1006.5
20260506100031 51 216 6.0 0.0 0.00 0.00 0.00 43 1006.2
20260506095536 51 172 5.0 0.0 0.00 0.00 0.00 44 1006.2
20260506095022 51 209 5.0 0.0 0.00 0.00 0.00 41 1006.2
20260506094529 50 183 4.0 0.0 0.00 0.00 0.00 45 1006.1
20260506094045 51 169 5.0 0.0 0.00 0.00 0.00 41 1006.1
20260506093531 51 189 6.0 0.0 0.00 0.00 0.00 43 1006.1
20260506093030 51 189 5.0 0.0 0.00 0.00 0.00 42 1006.1
20260506092536 51 202 5.0 0.0 0.00 0.00 0.00 43 1006.1
20260506092026 51 234 5.0 0.0 0.00 0.00 0.00 45 1006.1
20260506091526 50 170 4.0 0.0 0.00 0.00 0.00 43 1005.9
20260506091042 50 211 4.0 0.0 0.00 0.00 0.00 43 1005.9
20260506090527 49 262 5.0 0.0 0.00 0.00 0.00 45 1005.9
20260506090035 49 231 5.0 0.0 0.00 0.00 0.00 43 1005.9
20260506085553 49 262 5.0 0.0 0.00 0.00 0.00 45 1005.9
20260506085038 49 234 5.0 0.0 0.00 0.00 0.00 42 1005.9
20260506084557 49 199 4.0 0.0 0.00 0.00 0.00 44 1005.9
20260506084020 49 264 4.0 0.0 0.00 0.00 0.00 46 1005.7
20260506083526 49 254 5.0 0.0 0.00 0.00 0.00 43 1005.7
20260506083038 49 180 5.0 0.0 0.00 0.00 0.00 43 1005.7
20260506082526 49 257 4.0 0.0 0.00 0.00 0.00 44 1005.7